Orbital Elements at Epoch 2459200.5 (2020-Dec-17.0) TDB
Reference: JPL 35 (heliocentric ecliptic J2000)
Element | Value | Uncertainty (1-sigma) | Units |
e | .07402055733958933 | 4.1821e-08 | |
a | 2.886123249631102 | 1.4269e-08 | au |
q | 2.672490798142661 | 1.1954e-07 | au |
i | 3.071640063323474 | 3.5634e-06 | deg |
node | 70.2261108997435 | 8.718e-05 | deg |
peri | 336.8639510554634 | 9.2215e-05 | deg |
M | 128.3489817595959 | 2.9245e-05 | deg |
tp | 2458562.000349698326 (2019-Mar-19.50034970) | 0.00014588 | TDB |
period | 1790.8975276418 4.90 | 1.3281e-05 3.636e-08 | d yr |
n | .2010165263190894 | 1.4907e-09 | deg/d |
Q | 3.099755701119542 | 1.5325e-08 | au |
|
| | Orbit Determination Parameters
Additional Information
|